owner,sensor,date,latitude,longitude,vertical_datum,wind_speed,wind_to_direction,wind_speed_of_gust,qcFlag 
TABS,ioos:station:wmo:42044:1,2016-01-29T06:00:00Z,26.1914,-97.0507,0.0,5.841985964,201.9108422,6.74,'11111222,11111222,11111222' 
TABS,ioos:station:wmo:42044:1,2016-01-29T06:30:00Z,26.1914,-97.0507,0.0,5.52326896,206.1012773,6.38,'11111222,11111222,11111222' 
TABS,ioos:station:wmo:42044:1,2016-01-29T07:00:00Z,26.1914,-97.0507,0.0,5.466305882,210.0830457,6.36,'11111222,11111222,11111222' 
TABS,ioos:station:wmo:42044:1,2016-01-29T07:30:00Z,26.1914,-97.0507,0.0,5.099656851,212.1007931,6.27,'11111222,11111222,11111222' 
TABS,ioos:station:wmo:42044:1,2016-01-29T08:00:00Z,26.1914,-97.0507,0.0,5.070512795,212.8439903,6.24,'11111222,11111222,11111222' 
TABS,ioos:station:wmo:42044:1,2016-01-29T08:30:00Z,26.1914,-97.0507,0.0,4.515263005,213.6198115,5.55,'11111222,11111222,11111222' 
TABS,ioos:station:wmo:42044:1,2016-01-29T09:00:00Z,26.1914,-97.0507,0.0,4.536000441,216.8447593,5.81,'11111222,11111222,11111222' 
TABS,ioos:station:wmo:42044:1,2016-01-29T09:30:00Z,26.1914,-97.0507,0.0,6.497076266,220.5057581,7.86,'11111222,11111222,11111222' 
TABS,ioos:station:wmo:42044:1,2016-01-29T10:00:00Z,26.1914,-97.0507,0.0,6.314190368,218.9575285,7.36,'11111222,11111222,11111222' 
TABS,ioos:station:wmo:42044:1,2016-01-29T10:30:00Z,26.1914,-97.0507,0.0,6.048776736,223.1913701,7.22,'11111222,11111222,11111222' 
TABS,ioos:station:wmo:42044:1,2016-01-29T11:00:00Z,26.1914,-97.0507,0.0,6.080962095,222.2674626,6.99,'11111222,11111222,11111222' 
TABS,ioos:station:wmo:42044:1,2016-01-29T11:30:00Z,26.1914,-97.0507,0.0,5.744258003,221.6833523,6.89,'11111222,11111222,11111222' 
TABS,ioos:station:wmo:42044:1,2016-01-29T12:00:00Z,26.1914,-97.0507,0.0,6.695169901,208.7472,8.66,'11111222,11111222,11111222' 
TABS,ioos:station:wmo:42044:1,2016-01-29T12:30:00Z,26.1914,-97.0507,0.0,6.998092597,216.575277,8.37,'11111222,11111222,11111222' 
TABS,ioos:station:wmo:42044:1,2016-01-29T13:00:00Z,26.1914,-97.0507,0.0,7.558868963,211.860894,9.1,'11111222,11111222,11111222' 
TABS,ioos:station:wmo:42044:1,2016-01-29T13:30:00Z,26.1914,-97.0507,0.0,7.471017334,212.3713345,8.77,'11111222,11111222,11111222' 
TABS,ioos:station:wmo:42044:1,2016-01-29T14:00:00Z,26.1914,-97.0507,0.0,6.979856732,214.9652495,8.48,'11111222,11111222,11111222' 
TABS,ioos:station:wmo:42044:1,2016-01-29T14:30:00Z,26.1914,-97.0507,0.0,6.637657719,214.5042071,7.69,'11111222,11111222,11111222' 
TABS,ioos:station:wmo:42044:1,2016-01-29T15:00:00Z,26.1914,-97.0507,0.0,7.243652394,209.8921853,8.61,'11111222,11111222,11111222' 
TABS,ioos:station:wmo:42044:1,2016-01-29T15:30:00Z,26.1914,-97.0507,0.0,7.097407978,210.1054934,8.28,'11111222,11111222,11111222' 
TABS,ioos:station:wmo:42044:1,2016-01-29T16:00:00Z,26.1914,-97.0507,0.0,6.526415555,211.9124612,7.82,'11111222,11111222,11111222' 
TABS,ioos:station:wmo:42044:1,2016-01-29T16:30:00Z,26.1914,-97.0507,0.0,6.145087469,210.4042284,7.29,'11111222,11111222,11111222' 
TABS,ioos:station:wmo:42044:1,2016-01-29T17:00:00Z,26.1914,-97.0507,0.0,4.888568298,202.9986822,5.95,'11111222,11111222,11111222' 
TABS,ioos:station:wmo:42044:1,2016-01-29T17:30:00Z,26.1914,-97.0507,0.0,4.169232543,194.3030656,5.33,'11111222,11111222,11111222' 
TABS,ioos:station:wmo:42044:1,2016-01-29T18:00:00Z,26.1914,-97.0507,0.0,4.885898075,177.1846604,5.75,'11111222,11111222,11111222' 
TABS,ioos:station:wmo:42044:1,2016-01-29T18:30:00Z,26.1914,-97.0507,0.0,5.725906042,182.6027666,6.75,'11111222,11111222,11111222' 
TABS,ioos:station:wmo:42044:1,2016-01-29T19:00:00Z,26.1914,-97.0507,0.0,5.336337695,177.2075146,6.32,'11111222,11111222,11111222' 
TABS,ioos:station:wmo:42044:1,2016-01-29T19:30:00Z,26.1914,-97.0507,0.0,5.058141951,172.9595103,6.08,'11111222,11111222,11111222' 
TABS,ioos:station:wmo:42044:1,2016-01-29T20:00:00Z,26.1914,-97.0507,0.0,4.922194632,170.882369,5.83,'11111222,11111222,11111222' 
TABS,ioos:station:wmo:42044:1,2016-01-29T20:30:00Z,26.1914,-97.0507,0.0,4.95519929,170.0056503,5.69,'11111222,11111222,11111222' 
TABS,ioos:station:wmo:42044:1,2016-01-29T21:00:00Z,26.1914,-97.0507,0.0,4.863681733,168.7365106,5.92,'11111222,11111222,11111222' 
TABS,ioos:station:wmo:42044:1,2016-01-29T21:30:00Z,26.1914,-97.0507,0.0,4.879938524,167.8152782,5.81,'11111222,11111222,11111222' 
TABS,ioos:station:wmo:42044:1,2016-01-29T22:00:00Z,26.1914,-97.0507,0.0,4.427200018,163.7348671,5.37,'11111222,11111222,11111222' 
TABS,ioos:station:wmo:42044:1,2016-01-29T22:30:00Z,26.1914,-97.0507,0.0,4.693367661,159.2870436,5.62,'11111222,11111222,11111222' 
TABS,ioos:station:wmo:42044:1,2016-01-29T23:00:00Z,26.1914,-97.0507,0.0,4.308004178,154.8628547,5.01,'11111222,11111222,11111222' 
TABS,ioos:station:wmo:42044:1,2016-01-29T23:30:00Z,26.1914,-97.0507,0.0,4.253292842,156.1471985,4.96,'11111222,11111222,11111222' 
TABS,ioos:station:wmo:42044:1,2016-01-30T00:00:00Z,26.1914,-97.0507,0.0,4.61615641,159.7202297,5.34,'11111222,11111222,11111222' 
TABS,ioos:station:wmo:42044:1,2016-01-30T00:30:00Z,26.1914,-97.0507,0.0,4.550571393,170.6414067,5.6,'11111222,11111222,11111222' 
TABS,ioos:station:wmo:42044:1,2016-01-30T01:00:00Z,26.1914,-97.0507,0.0,4.604052563,174.1410363,5.36,'11111222,11111222,11111222' 
TABS,ioos:station:wmo:42044:1,2016-01-30T01:30:00Z,26.1914,-97.0507,0.0,4.470447405,172.2870131,5.13,'11111222,11111222,11111222' 
TABS,ioos:station:wmo:42044:1,2016-01-30T02:00:00Z,26.1914,-97.0507,0.0,4.693069358,168.5705895,5.4,'11111222,11111222,11111222' 
TABS,ioos:station:wmo:42044:1,2016-01-30T02:30:00Z,26.1914,-97.0507,0.0,5.237804884,167.3171886,6.33,'11111222,11111222,11111222' 
TABS,ioos:station:wmo:42044:1,2016-01-30T03:00:00Z,26.1914,-97.0507,0.0,5.842884562,170.9409401,7.17,'11111222,11111222,11111222' 
TABS,ioos:station:wmo:42044:1,2016-01-30T03:30:00Z,26.1914,-97.0507,0.0,5.962759428,170.4431286,6.91,'11111222,11111222,11111222' 
TABS,ioos:station:wmo:42044:1,2016-01-30T04:00:00Z,26.1914,-97.0507,0.0,6.183631619,168.9992218,7.24,'11111222,11111222,11111222' 
TABS,ioos:station:wmo:42044:1,2016-01-30T04:30:00Z,26.1914,-97.0507,0.0,6.137752031,172.1341605,7.67,'11111222,11111222,11111222' 
TABS,ioos:station:wmo:42044:1,2016-01-30T05:00:00Z,26.1914,-97.0507,0.0,5.617632953,172.5336422,6.72,'11111222,11111222,11111222' 
TABS,ioos:station:wmo:42044:1,2016-01-30T05:30:00Z,26.1914,-97.0507,0.0,5.519827896,172.2958364,6.57,'11111222,11111222,11111222' 
TABS,ioos:station:wmo:42044:1,2016-01-30T06:00:00Z,26.1914,-97.0507,0.0,5.648681262,172.4726129,6.96,'11111222,11111222,11111222' 
TABS,ioos:station:wmo:42044:1,2016-01-30T06:30:00Z,26.1914,-97.0507,0.0,5.77,175.2283336,6.88,'11111222,11111222,11111222' 
TABS,ioos:station:wmo:42044:1,2016-01-30T07:00:00Z,26.1914,-97.0507,0.0,5.781461753,178.7117713,6.68,'11111222,11111222,11111222' 
TABS,ioos:station:wmo:42044:1,2016-01-30T07:30:00Z,26.1914,-97.0507,0.0,5.908671594,183.1047291,7.3,'11111222,11111222,11111222' 
TABS,ioos:station:wmo:42044:1,2016-01-30T08:00:00Z,26.1914,-97.0507,0.0,5.66389442,182.125046,6.75,'11111222,11111222,11111222' 
TABS,ioos:station:wmo:42044:1,2016-01-30T08:30:00Z,26.1914,-97.0507,0.0,5.792495145,181.6819829,6.65,'11111222,11111222,11111222' 
TABS,ioos:station:wmo:42044:1,2016-01-30T09:00:00Z,26.1914,-97.0507,0.0,5.281145709,178.8067238,6.48,'11111222,11111222,11111222' 
TABS,ioos:station:wmo:42044:1,2016-01-30T09:30:00Z,26.1914,-97.0507,0.0,4.822001659,175.9569316,5.7,'11111222,11111222,11111222' 
TABS,ioos:station:wmo:42044:1,2016-01-30T10:00:00Z,26.1914,-97.0507,0.0,5.094752202,177.5253182,6.03,'11111222,11111222,11111222' 
TABS,ioos:station:wmo:42044:1,2016-01-30T10:30:00Z,26.1914,-97.0507,0.0,4.805507257,182.7435285,5.55,'11111222,11111222,11111222' 
TABS,ioos:station:wmo:42044:1,2016-01-30T11:00:00Z,26.1914,-97.0507,0.0,5.500445437,180.7293884,6.42,'11111222,11111222,11111222' 
TABS,ioos:station:wmo:42044:1,2016-01-30T11:30:00Z,26.1914,-97.0507,0.0,5.420922431,181.0572058,6.33,'11111222,11111222,11111222' 
TABS,ioos:station:wmo:42044:1,2016-01-30T12:00:00Z,26.1914,-97.0507,0.0,5.750313035,180.5980564,6.76,'11111222,11111222,11111222' 
TABS,ioos:station:wmo:42044:1,2016-01-30T12:30:00Z,26.1914,-97.0507,0.0,5.110792502,178.9911938,6.0,'11111222,11111222,11111222' 
TABS,ioos:station:wmo:42044:1,2016-01-30T13:00:00Z,26.1914,-97.0507,0.0,5.166139758,186.7813028,6.09,'11111222,11111222,11111222' 
TABS,ioos:station:wmo:42044:1,2016-01-30T13:30:00Z,26.1914,-97.0507,0.0,5.482955407,181.8815078,6.49,'11111222,11111222,11111222' 
TABS,ioos:station:wmo:42044:1,2016-01-30T14:00:00Z,26.1914,-97.0507,0.0,5.961644069,178.654587,7.09,'11111222,11111222,11111222' 
TABS,ioos:station:wmo:42044:1,2016-01-30T14:30:00Z,26.1914,-97.0507,0.0,5.390009276,179.8939107,6.54,'11111222,11111222,11111222' 
TABS,ioos:station:wmo:42044:1,2016-01-30T15:00:00Z,26.1914,-97.0507,0.0,4.616773765,176.8961119,5.68,'11111222,11111222,11111222' 
TABS,ioos:station:wmo:42044:1,2016-01-30T15:30:00Z,26.1914,-97.0507,0.0,4.460773476,174.4685592,5.28,'11111222,11111222,11111222' 
TABS,ioos:station:wmo:42044:1,2016-01-30T16:00:00Z,26.1914,-97.0507,0.0,4.189224272,168.153844,5.03,'11111222,11111222,11111222' 
TABS,ioos:station:wmo:42044:1,2016-01-30T16:30:00Z,26.1914,-97.0507,0.0,4.229763587,163.2361325,4.86,'11111222,11111222,11111222' 
TABS,ioos:station:wmo:42044:1,2016-01-30T17:00:00Z,26.1914,-97.0507,0.0,3.715534955,170.081583,4.36,'11111222,11111222,11111222' 
TABS,ioos:station:wmo:42044:1,2016-01-30T17:30:00Z,26.1914,-97.0507,0.0,3.284448203,166.9794736,3.8,'11111222,11111222,11111222' 
TABS,ioos:station:wmo:42044:1,2016-01-30T18:00:00Z,26.1914,-97.0507,0.0,3.021291115,158.445359,3.7,'11111222,11111222,11111222' 
TABS,ioos:station:wmo:42044:1,2016-01-30T18:30:00Z,26.1914,-97.0507,0.0,3.172333526,160.4800734,3.93,'11111222,11111222,11111222' 
TABS,ioos:station:wmo:42044:1,2016-01-30T19:00:00Z,26.1914,-97.0507,0.0,3.153363284,174.7235433,3.6,'11111222,11111222,11111222' 
TABS,ioos:station:wmo:42044:1,2016-01-30T19:30:00Z,26.1914,-97.0507,0.0,3.797591342,176.3768282,4.53,'11111222,11111222,11111222' 
TABS,ioos:station:wmo:42044:1,2016-01-30T20:00:00Z,26.1914,-97.0507,0.0,4.336104242,176.9596503,5.09,'11111222,11111222,11111222' 
TABS,ioos:station:wmo:42044:1,2016-01-30T20:30:00Z,26.1914,-97.0507,0.0,4.521459941,174.4157212,5.17,'11111222,11111222,11111222' 
TABS,ioos:station:wmo:42044:1,2016-01-30T21:00:00Z,26.1914,-97.0507,0.0,4.536176804,168.8141599,5.33,'11111222,11111222,11111222' 
TABS,ioos:station:wmo:42044:1,2016-01-30T21:30:00Z,26.1914,-97.0507,0.0,3.853517873,170.4401363,4.63,'11111222,11111222,11111222' 
TABS,ioos:station:wmo:42044:1,2016-01-30T22:00:00Z,26.1914,-97.0507,0.0,3.471743078,156.7583341,4.14,'11111222,11111222,11111222' 
TABS,ioos:station:wmo:42044:1,2016-01-30T22:30:00Z,26.1914,-97.0507,0.0,3.512406582,151.6111358,4.29,'11111222,11111222,11111222' 
TABS,ioos:station:wmo:42044:1,2016-01-30T23:00:00Z,26.1914,-97.0507,0.0,3.736656259,147.458533,4.5,'11111222,11111222,11111222' 
TABS,ioos:station:wmo:42044:1,2016-01-30T23:30:00Z,26.1914,-97.0507,0.0,3.6900542,142.8198566,4.24,'11111222,11111222,11111222' 
TABS,ioos:station:wmo:42044:1,2016-01-31T00:00:00Z,26.1914,-97.0507,0.0,4.44235298,142.4081149,5.01,'11111222,11111222,11111222' 
TABS,ioos:station:wmo:42044:1,2016-01-31T00:30:00Z,26.1914,-97.0507,0.0,4.910112015,147.4753962,5.64,'11111222,11111222,11111222' 
TABS,ioos:station:wmo:42044:1,2016-01-31T01:00:00Z,26.1914,-97.0507,0.0,4.241851011,151.562297,4.91,'11111222,11111222,11111222' 
TABS,ioos:station:wmo:42044:1,2016-01-31T01:30:00Z,26.1914,-97.0507,0.0,4.730264263,151.3221495,5.44,'11111222,11111222,11111222' 
TABS,ioos:station:wmo:42044:1,2016-01-31T02:00:00Z,26.1914,-97.0507,0.0,4.772965535,150.6425256,5.53,'11111222,11111222,11111222' 
TABS,ioos:station:wmo:42044:1,2016-01-31T02:30:00Z,26.1914,-97.0507,0.0,4.222380845,160.492478,4.84,'11111222,11111222,11111222' 
TABS,ioos:station:wmo:42044:1,2016-01-31T03:00:00Z,26.1914,-97.0507,0.0,4.500055555,162.0081997,5.14,'11111222,11111222,11111222' 
TABS,ioos:station:wmo:42044:1,2016-01-31T03:30:00Z,26.1914,-97.0507,0.0,4.62087654,162.624036,5.42,'11111222,11111222,11111222' 
TABS,ioos:station:wmo:42044:1,2016-01-31T04:00:00Z,26.1914,-97.0507,0.0,5.317461801,153.7725342,6.23,'11111222,11111222,11111222' 
TABS,ioos:station:wmo:42044:1,2016-01-31T04:30:00Z,26.1914,-97.0507,0.0,5.017858109,155.8870609,5.65,'11111222,11111222,11111222' 
TABS,ioos:station:wmo:42044:1,2016-01-31T05:00:00Z,26.1914,-97.0507,0.0,5.613065116,151.0150755,6.53,'11111222,11111222,11111222' 
TABS,ioos:station:wmo:42044:1,2016-01-31T05:30:00Z,26.1914,-97.0507,0.0,5.570682184,155.2754124,6.24,'11111222,11111222,11111222' 
TABS,ioos:station:wmo:42044:1,2016-01-31T06:00:00Z,26.1914,-97.0507,0.0,5.600830296,154.8535937,6.3,'11111222,11111222,11111222' 
TABS,ioos:station:wmo:42044:1,2016-01-31T06:30:00Z,26.1914,-97.0507,0.0,5.476586528,158.9176813,6.57,'11111222,11111222,11111222' 
TABS,ioos:station:wmo:42044:1,2016-01-31T07:00:00Z,26.1914,-97.0507,0.0,5.180366782,160.7258682,6.15,'11111222,11111222,11111222' 
TABS,ioos:station:wmo:42044:1,2016-01-31T07:30:00Z,26.1914,-97.0507,0.0,5.835923235,166.7259917,6.6,'11111222,11111222,11111222' 
TABS,ioos:station:wmo:42044:1,2016-01-31T08:00:00Z,26.1914,-97.0507,0.0,5.405127196,171.8101631,6.17,'11111222,11111222,11111222' 
TABS,ioos:station:wmo:42044:1,2016-01-31T08:30:00Z,26.1914,-97.0507,0.0,5.959102281,165.9173611,6.77,'11111222,11111222,11111222' 
TABS,ioos:station:wmo:42044:1,2016-01-31T09:00:00Z,26.1914,-97.0507,0.0,6.0867479,174.6268253,7.04,'11111222,11111222,11111222' 
TABS,ioos:station:wmo:42044:1,2016-01-31T09:30:00Z,26.1914,-97.0507,0.0,6.513877493,171.9696418,7.53,'11111222,11111222,11111222' 
TABS,ioos:station:wmo:42044:1,2016-01-31T10:00:00Z,26.1914,-97.0507,0.0,5.064780351,182.4897576,5.98,'11111222,11111222,11111222' 
TABS,ioos:station:wmo:42044:1,2016-01-31T10:30:00Z,26.1914,-97.0507,0.0,4.443872185,185.9417164,5.14,'11111222,11111222,11111222' 
TABS,ioos:station:wmo:42044:1,2016-01-31T11:00:00Z,26.1914,-97.0507,0.0,4.79426741,172.2081506,5.64,'11111222,11111222,11111222' 
TABS,ioos:station:wmo:42044:1,2016-01-31T11:30:00Z,26.1914,-97.0507,0.0,5.168994099,172.1052652,6.08,'11111222,11111222,11111222' 
TABS,ioos:station:wmo:42044:1,2016-01-31T12:00:00Z,26.1914,-97.0507,0.0,3.743541104,187.6757478,4.47,'11111222,11111222,11111222' 
TABS,ioos:station:wmo:42044:1,2016-01-31T12:30:00Z,26.1914,-97.0507,0.0,4.611821766,184.1035206,5.21,'11111222,11111222,11111222' 
TABS,ioos:station:wmo:42044:1,2016-01-31T13:00:00Z,26.1914,-97.0507,0.0,3.590125346,179.5214279,4.14,'11111222,11111222,11111222' 
TABS,ioos:station:wmo:42044:1,2016-01-31T13:30:00Z,26.1914,-97.0507,0.0,3.699567542,185.8957137,4.22,'11111222,11111222,11111222' 
TABS,ioos:station:wmo:42044:1,2016-01-31T14:00:00Z,26.1914,-97.0507,0.0,3.939961929,184.0754568,4.41,'11111222,11111222,11111222' 
TABS,ioos:station:wmo:42044:1,2016-01-31T14:30:00Z,26.1914,-97.0507,0.0,3.53276096,187.8091847,4.05,'11111222,11111222,11111222' 
TABS,ioos:station:wmo:42044:1,2016-01-31T15:00:00Z,26.1914,-97.0507,0.0,3.397440213,196.9417132,4.11,'11111222,11111222,11111222' 
TABS,ioos:station:wmo:42044:1,2016-01-31T15:30:00Z,26.1914,-97.0507,0.0,2.900637861,168.2641783,3.28,'11111222,11111222,11111222' 
TABS,ioos:station:wmo:42044:1,2016-01-31T16:00:00Z,26.1914,-97.0507,0.0,2.985431292,160.8370095,3.55,'11111222,11111222,11111222' 
TABS,ioos:station:wmo:42044:1,2016-01-31T16:30:00Z,26.1914,-97.0507,0.0,3.400735215,168.2938011,4.02,'11111222,11111222,11111222' 
TABS,ioos:station:wmo:42044:1,2016-01-31T17:00:00Z,26.1914,-97.0507,0.0,4.926682454,158.6955601,6.0,'11111222,11111222,11111222' 
TABS,ioos:station:wmo:42044:1,2016-01-31T17:30:00Z,26.1914,-97.0507,0.0,5.165626777,163.0035338,6.15,'11111222,11111222,11111222' 
TABS,ioos:station:wmo:42044:1,2016-01-31T18:00:00Z,26.1914,-97.0507,0.0,4.920995834,162.3753434,5.72,'11111222,11111222,11111222' 
TABS,ioos:station:wmo:42044:1,2016-01-31T18:30:00Z,26.1914,-97.0507,0.0,6.112389058,157.0847653,7.38,'11111222,11111222,11111222' 
TABS,ioos:station:wmo:42044:1,2016-01-31T19:00:00Z,26.1914,-97.0507,0.0,6.489021498,161.3977741,7.79,'11111222,11111222,11111222' 
TABS,ioos:station:wmo:42044:1,2016-01-31T19:30:00Z,26.1914,-97.0507,0.0,5.940791193,167.0634546,7.28,'11111222,11111222,11111222' 
TABS,ioos:station:wmo:42044:1,2016-01-31T20:00:00Z,26.1914,-97.0507,0.0,5.223887441,157.6081961,6.23,'11111222,11111222,11111222' 
TABS,ioos:station:wmo:42044:1,2016-01-31T20:30:00Z,26.1914,-97.0507,0.0,5.272741223,159.2280044,6.09,'11111222,11111222,11111222' 
TABS,ioos:station:wmo:42044:1,2016-01-31T21:00:00Z,26.1914,-97.0507,0.0,5.278304652,152.2215122,6.2,'11111222,11111222,11111222' 
TABS,ioos:station:wmo:42044:1,2016-01-31T21:30:00Z,26.1914,-97.0507,0.0,5.581415591,155.7772024,6.41,'11111222,11111222,11111222' 
TABS,ioos:station:wmo:42044:1,2016-01-31T22:00:00Z,26.1914,-97.0507,0.0,5.688558693,153.4802651,6.55,'11111222,11111222,11111222' 
TABS,ioos:station:wmo:42044:1,2016-01-31T22:30:00Z,26.1914,-97.0507,0.0,5.769228718,153.8793648,6.79,'11111222,11111222,11111222' 
TABS,ioos:station:wmo:42044:1,2016-01-31T23:00:00Z,26.1914,-97.0507,0.0,5.111809856,153.8863589,6.16,'11111222,11111222,11111222' 
TABS,ioos:station:wmo:42044:1,2016-01-31T23:30:00Z,26.1914,-97.0507,0.0,4.934338861,149.6936947,5.57,'11111222,11111222,11111222' 
 
DISCLAIMER: The Gulf of Mexico Coastal and Ocean Observing (GCOOS) Data Portal aggregates data from the regional data providers for the convenience of all data users. Data published on this website should not be used for navigation or certain other uses as we cannot guarantee data accuracy or availability. The data and delivery services are provided 'as is' without warranty of any kind. Data Source: Gulf of Mexico Coastal Ocean Observing System Data Portal (http://data.gcoos.org/) 
